Theta_e
285 286 287 287 286 285 285 285 285 285 286 289 288 284 284 289 287 286 287 288 286 285 287 288 289 291 292 292 293 294 295 295 295 295 295 295 296 297 298 298 299 299 299 300 301 301 301 302 302 302 302 302 304 310 313 315 316 317 317 318 319 319 319 319 320 320 321 321 321 321 321 322 321 320 320 320 320 319 320 321 321 320 320 319 319 319 320
286 286 286 288 287 286 286 285 285 286 287 285 286 285 286 287 287 288 287 287 284 287 287 288 289 292 292 292 293 293 292 292 293 293 292 293 293 294 295 297 298 299 299 300 300 301 302 301 301 302 302 302 301 302 305 311 314 315 317 317 317 318 318 319 320 320 320 321 321 321 321 321 321 321 320 319 319 319 319 320 320 320 319 319 319 319 319
284 285 287 287 287 287 286 287 287 287 287 287 286 286 287 287 286 287 288 285 284 287 289 289 290 290 291 291 290 290 291 291 292 291 291 291 292 292 293 295 296 297 298 299 300 300 300 301 301 302 302 302 303 303 302 304 306 310 315 316 317 317 318 319 319 319 319 320 320 320 320 321 321 320 319 320 319 319 320 319 319 317 318 318 318 318 319
282 285 286 286 287 287 286 286 287 287 288 286 285 284 285 287 285 286 287 285 284 287 288 288 289 289 288 288 289 289 290 290 291 290 290 291 291 292 293 294 294 295 295 297 298 298 299 300 300 300 302 302 302 302 303 302 303 306 312 315 315 316 316 318 318 318 318 319 319 319 319 319 320 319 319 319 319 320 320 319 317 317 317 316 316 317 318
280 284 284 284 285 285 284 285 284 283 283 285 284 285 285 287 288 287 287 287 287 287 288 287 287 288 288 288 288 289 289 290 290 290 290 290 291 292 292 293 293 294 294 295 297 298 298 298 298 299 300 301 301 302 303 304 304 304 304 306 311 315 316 317 317 318 318 318 318 318 318 319 319 320 319 318 318 318 318 320 319 317 317 318 318 318 318
282 283 284 285 283 277 280 284 283 285 284 284 284 281 282 284 286 284 286 287 287 288 287 286 286 286 286 287 288 290 290 291 290 290 291 291 292 292 293 293 293 294 295 296 297 298 298 298 299 300 301 301 302 303 304 305 305 304 303 304 306 307 310 313 316 316 316 317 317 317 317 317 318 318 318 318 318 319 319 319 318 318 319 318 319 319 319
280 283 283 280 275 279 283 285 287 287 287 286 284 283 284 285 285 286 285 285 285 286 287 286 286 287 287 289 289 289 291 291 291 290 290 291 291 292 293 293 293 294 295 296 297 297 296 298 299 299 299 300 302 301 302 303 304 305 304 304 305 306 308 310 311 314 315 315 316 316 316 316 317 317 317 317 318 318 318 318 318 317 317 318 319 319 319
282 280 280 273 276 281 283 285 286 288 288 287 287 284 285 285 286 286 284 285 285 285 285 286 287 287 287 288 289 289 290 291 291 291 290 291 292 291 292 293 294 293 294 295 296 296 298 297 297 297 298 299 299 300 301 301 302 303 304 304 304 305 304 305 307 310 312 314 315 316 316 315 315 316 317 316 315 315 315 316 317 318 318 319 318 318 318
279 279 279 277 280 281 282 281 283 285 283 284 284 280 281 285 286 287 285 285 286 286 286 286 287 287 289 287 287 290 290 290 291 291 291 292 292 293 293 293 293 294 294 295 296 297 297 298 297 296 297 299 299 299 299 299 300 301 303 302 302 303 305 305 304 305 308 310 312 313 314 314 315 315 316 315 315 314 314 315 315 316 317 317 317 317 315
281 279 277 277 276 275 280 283 286 287 287 287 287 285 280 285 286 288 287 286 286 287 287 287 288 288 288 285 285 288 290 291 291 292 292 293 293 293 293 294 294 295 295 296 296 296 297 297 296 297 298 298 298 298 299 298 298 300 300 301 301 302 302 303 305 304 305 307 309 308 307 309 312 314 316 317 316 313 314 313 312 312 312 312 313 315 314
278 278 277 275 275 277 281 284 285 287 286 287 286 285 280 284 286 287 288 286 287 287 287 287 288 288 286 284 286 288 289 291 291 291 292 292 293 293 293 293 293 294 294 295 295 296 296 295 296 297 297 297 297 298 298 298 298 298 299 299 300 300 301 303 304 305 305 306 307 307 307 308 310 312 312 312 313 312 313 314 313 311 310 311 310 310 312
277 278 277 277 275 276 281 284 285 286 287 287 286 277 278 284 286 286 287 287 286 286 287 289 289 288 284 284 286 289 289 291 292 291 291 292 292 292 293 294 293 293 294 293 293 293 293 294 295 296 296 296 297 297 297 298 298 298 298 298 299 301 301 302 303 304 306 305 306 307 307 307 306 308 309 309 307 307 308 308 307 307 307 308 306 305 305
277 277 274 276 277 282 284 284 286 286 286 287 279 276 281 284 286 286 288 287 287 288 288 288 285 286 287 288 289 290 291 291 291 292 293 292 292 292 292 292 292 292 292 292 292 292 293 293 294 295 295 295 296 296 297 297 297 298 298 299 299 300 301 301 302 302 304 305 305 307 308 307 306 305 306 308 307 307 305 305 306 305 304 304 303 303 303
278 277 277 276 277 282 284 286 287 287 285 279 278 281 285 287 286 287 288 287 287 288 288 288 288 289 289 290 291 290 290 290 291 291 291 292 292 292 292 292 291 291 292 292 292 292 293 293 293 293 294 293 294 295 296 296 297 298 298 298 299 299 299 300 301 302 303 305 306 307 307 308 308 306 305 306 307 309 308 307 306 304 303 304 303 302 301
276 276 276 274 274 280 285 285 285 288 282 281 284 285 285 288 288 287 287 288 287 289 288 288 289 289 289 289 289 290 290 290 290 290 290 290 289 290 290 290 291 290 290 290 290 291 292 292 292 293 293 292 293 294 294 296 297 298 298 298 298 298 299 299 300 301 302 303 304 306 307 307 308 308 307 306 307 308 307 306 302 300 299 300 301 301 301
277 276 275 275 279 281 287 285 282 284 286 286 287 288 286 287 289 288 288 288 288 288 289 289 289 289 289 289 290 290 290 290 290 290 290 290 289 289 290 290 290 290 289 290 290 291 291 292 292 292 291 291 291 292 292 295 296 297 297 297 297 297 298 298 299 300 301 301 303 305 305 304 304 308 307 306 306 307 308 306 303 300 298 299 299 299 299
278 277 278 281 285 286 287 287 286 287 288 289 290 290 289 288 288 290 289 289 289 289 289 289 289 289 289 288 288 288 288 288 288 288 288 288 288 288 288 288 289 289 289 289 289 290 291 291 291 291 291 290 290 290 293 294 294 294 295 295 295 295 296 297 298 299 300 301 302 302 305 304 303 303 305 305 304 306 307 306 304 302 299 299 299 298 297
284 285 285 286 286 287 287 289 290 289 290 291 291 290 289 289 289 290 289 289 290 290 290 289 289 288 287 288 288 287 287 287 287 288 288 288 289 289 289 289 289 288 289 289 289 289 289 290 290 291 291 291 290 291 292 293 293 293 293 293 293 294 295 296 297 298 298 299 301 302 301 302 303 302 303 304 305 305 306 306 305 304 301 299 298 297 297
280 275 285 284 284 286 287 288 289 290 290 290 291 291 290 290 290 289 288 288 288 288 288 287 287 286 286 286 286 286 286 286 286 287 287 288 288 288 288 288 288 288 288 288 288 288 288 290 290 290 290 290 290 291 291 292 292 292 292 292 292 293 294 295 296 297 298 298 301 300 299 301 302 303 302 302 303 304 305 305 305 303 300 300 300 299 296
279 280 284 285 287 287 288 288 288 288 288 288 289 289 289 289 289 289 289 290 289 289 289 288 288 287 287 286 286 286 286 287 287 287 288 288 288 288 289 289 289 288 287 287 287 288 288 289 290 290 290 290 291 292 292 292 292 291 291 291 292 292 293 294 295 296 297 292 294 298 299 303 302 303 303 302 302 302 305 306 305 302 302 301 301 299 295
282 284 285 284 286 286 287 288 288 289 289 289 289 289 290 290 290 290 290 290 289 289 289 288 288 287 287 287 287 286 287 287 287 287 288 288 288 289 288 288 288 287 287 287 287 288 288 290 291 291 292 292 292 292 292 292 292 291 290 290 291 292 293 293 294 296 296 297 298 298 299 300 301 300 302 302 302 303 307 305 305 305 304 303 301 304 301
278 280 283 285 280 280 285 287 288 288 289 289 290 289 290 290 289 289 289 288 288 289 289 288 287 286 287 287 287 286 286 287 287 288 288 288 288 288 289 288 288 288 288 288 288 288 289 290 291 291 291 292 293 293 293 292 292 290 290 290 290 291 292 293 294 295 296 296 297 298 298 299 300 299 287 289 296 301 302 295 292 291 293 301 304 303 301
279 284 286 288 287 285 286 288 289 289 289 290 290 290 289 289 289 289 289 288 288 288 288 288 287 287 287 287 287 286 287 287 288 288 288 287 287 288 288 287 287 287 288 288 289 289 289 290 290 291 291 292 292 293 293 292 292 291 290 289 289 290 291 292 292 294 294 295 297 298 299 299 299 299 299 294 287 286 289 293 292 291 291 290 290 294 299
285 286 287 288 287 285 287 287 289 289 289 290 290 289 289 290 289 289 289 289 288 288 288 288 288 287 287 287 287 286 287 287 287 287 288 288 288 287 287 287 287 288 288 288 289 289 290 290 290 291 291 291 291 292 292 291 292 291 290 289 288 288 290 291 291 291 293 294 296 297 298 299 299 298 298 297 296 290 287 289 290 290 290 290 290 290 290
285 286 287 287 289 288 288 288 288 288 289 290 290 290 290 290 289 289 289 288 288 288 287 287 288 287 286 287 287 286 286 286 287 286 286 287 286 286 286 287 288 288 288 288 289 290 291 291 290 290 290 290 291 291 291 291 291 290 290 289 289 289 289 289 290 290 291 292 294 296 297 298 298 297 297 297 297 296 295 288 287 287 287 288 289 289 289
287 286 287 287 289 289 289 289 289 289 288 289 291 290 291 291 290 290 289 289 289 289 288 286 286 287 287 286 286 286 286 286 286 286 286 286 286 286 286 287 288 288 288 288 289 290 291 291 290 290 289 289 290 291 291 291 290 290 290 290 290 289 289 289 290 291 291 292 293 295 297 298 298 298 296 298 297 297 295 296 296 292 288 287 288 288 288
287 289 289 288 287 287 288 287 287 290 290 289 290 290 290 290 290 290 289 289 289 289 287 287 287 287 287 287 286 286 286 286 286 286 286 286 285 286 287 288 288 288 288 288 289 289 289 290 289 289 289 290 291 291 291 290 290 290 290 290 290 288 286 287 290 290 291 292 293 295 296 297 298 297 298 297 297 295 294 294 294 295 293 291 288 289 292
288 288 288 285 284 286 288 289 289 290 289 289 289 289 288 288 290 288 288 288 288 288 288 288 287 287 286 287 286 286 286 286 285 285 285 285 286 287 288 288 288 288 288 288 289 290 290 290 289 288 288 290 290 290 290 290 290 290 290 290 290 290 290 288 288 289 290 291 292 293 295 296 298 298 297 296 296 296 296 295 294 292 288 289 289 287 286
287 287 287 287 288 288 289 289 289 289 287 286 286 287 288 287 288 288 288 288 288 287 286 287 287 287 286 287 287 286 286 286 285 285 285 285 286 287 287 288 288 288 287 288 290 291 290 289 288 288 288 289 290 290 290 290 289 289 290 290 290 290 289 290 290 290 290 291 292 293 291 293 295 297 296 296 295 296 298 297 293 294 292 290 290 290 289
287 287 287 286 285 288 289 288 288 288 288 287 287 287 287 287 286 287 287 288 288 287 287 287 287 287 288 287 287 286 285 285 284 285 285 286 287 287 286 287 287 288 289 290 290 289 288 288 288 287 287 289 289 289 290 289 290 290 290 290 290 290 290 290 290 290 290 290 291 288 291 293 295 296 296 296 295 294 294 293 293 291 291 292 290 291 290
287 288 288 287 287 288 289 289 288 288 288 287 287 288 287 287 287 287 287 288 288 288 288 287 287 287 287 287 287 286 286 285 284 285 285 285 285 285 285 286 285 285 285 286 287 287 286 287 287 287 288 288 288 289 289 290 291 291 291 291 291 289 288 287 288 290 290 290 290 291 291 292 294 294 293 293 293 293 294 294 292 290 291 292 291 291 291
287 287 287 287 288 288 288 287 287 287 287 287 287 287 287 287 286 286 287 288 288 288 288 287 286 286 285 285 285 284 284 284 284 284 284 284 284 284 285 285 285 284 285 285 286 287 287 286 286 287 288 288 289 290 291 291 291 291 291 289 291 291 288 287 288 289 289 289 290 291 290 291 293 294 293 293 293 292 292 292 291 291 291 290 290 289 290
287 285 285 286 286 286 287 287 287 287 287 286 287 288 288 288 288 288 288 288 288 288 287 286 286 285 284 284 283 283 283 283 283 283 283 283 284 284 285 285 285 285 285 287 289 289 287 285 286 287 288 288 290 291 291 291 291 290 291 291 291 291 288 287 288 289 289 289 289 290 292 291 292 292 293 293 294 292 293 292 291 291 290 290 289 288 289
288 287 287 288 288 286 287 287 288 288 288 288 288 288 288 288 288 288 288 288 287 286 286 285 285 283 283 283 283 283 283 283 283 284 283 283 283 284 285 285 286 287 288 289 290 289 288 287 288 289 288 289 290 291 291 290 291 291 291 291 291 291 290 289 288 289 289 288 289 290 291 291 292 292 292 292 292 292 291 291 291 290 290 291 291 290 288
290 290 289 289 289 289 289 289 289 288 288 286 287 288 288 288 287 288 287 287 287 287 287 286 284 283 283 283 283 282 282 281 281 281 282 283 283 284 285 285 286 286 288 290 291 288 287 288 288 288 288 290 291 291 290 289 291 291 291 291 291 291 291 290 290 289 289 289 289 290 289 290 291 290 291 292 292 292 291 291 290 290 289 288 288 287 287
289 289 288 288 287 287 288 289 289 290 289 287 284 285 288 289 288 288 287 287 288 287 286 285 284 283 283 283 283 282 281 282 282 282 282 282 283 284 284 284 284 284 286 289 290 288 288 288 286 285 288 291 291 291 290 288 291 291 291 291 290 290 290 289 289 288 287 288 288 288 289 288 289 291 291 291 292 292 291 289 289 288 288 287 287 287 287
288 290 290 290 288 288 288 288 288 289 288 288 288 288 289 289 289 288 287 287 287 287 286 285 284 284 284 284 283 283 282 282 282 282 282 283 283 283 283 283 283 283 284 285 287 287 288 288 285 284 289 291 291 292 290 286 290 291 291 291 290 290 290 289 288 288 287 288 287 287 287 288 289 290 290 292 291 290 290 289 288 288 288 287 287 288 288
288 289 290 290 289 288 289 289 288 289 288 287 287 287 288 289 289 288 287 287 287 286 287 285 285 285 284 284 283 282 282 282 281 281 281 281 282 282 283 283 283 283 283 283 285 286 287 287 285 287 290 291 291 291 289 285 286 291 291 290 290 290 289 289 289 289 288 288 287 289 289 289 289 289 290 291 290 289 289 288 288 287 287 287 287 288 289
288 287 288 288 288 289 289 287 287 288 288 289 289 290 289 288 287 286 286 287 287 286 286 285 285 285 285 284 283 283 282 282 281 280 280 281 282 282 283 283 284 283 283 284 286 286 287 286 287 289 290 290 291 292 289 286 287 292 292 291 290 289 289 289 288 288 288 288 288 288 289 289 289 289 290 290 290 288 287 287 287 287 288 288 288 288 288
289 289 289 288 288 289 289 289 288 288 288 289 289 289 290 288 288 287 287 286 286 286 287 286 286 284 284 284 284 283 283 283 282 280 279 281 282 283 285 285 286 286 285 284 285 286 285 284 287 289 290 290 290 290 290 287 288 292 292 292 291 290 289 288 288 288 288 288 287 287 288 288 288 289 289 289 289 289 289 288 287 288 288 289 289 288 288
289 289 289 289 289 289 289 289 288 289 289 288 288 289 289 288 288 287 286 286 286 286 287 286 285 285 284 284 284 284 284 284 284 283 283 283 283 283 283 283 285 286 285 284 285 285 285 285 286 288 289 290 290 287 290 288 291 291 291 291 291 290 290 289 288 287 287 287 287 287 287 288 288 288 288 289 289 289 289 288 287 287 287 287 288 288 288
289 289 288 288 289 289 289 290 289 288 288 289 288 288 289 288 287 287 287 287 286 286 287 286 284 285 285 284 285 284 284 284 284 284 284 283 283 283 282 283 285 285 282 283 284 285 287 287 287 286 287 289 289 285 285 289 291 291 290 290 290 290 290 290 289 289 289 288 288 288 287 287 287 286 287 287 287 287 287 286 286 286 286 286 286 287 287
288 288 288 289 289 289 289 289 288 289 290 290 289 289 289 288 287 286 286 286 286 286 286 286 285 283 284 284 284 283 283 284 284 284 284 284 284 284 283 284 285 285 281 283 285 286 286 286 287 287 284 285 287 285 286 290 290 290 290 289 289 289 289 289 289 288 289 288 287 287 287 286 286 286 285 285 285 285 285 285 285 285 285 285 285 285 286
288 288 289 289 289 289 289 288 289 288 288 290 291 290 289 288 287 287 286 286 286 285 285 285 285 285 284 284 283 283 283 284 284 284 283 283 284 284 285 285 285 284 280 283 285 285 285 285 285 283 283 284 284 285 289 290 290 289 289 289 288 288 288 288 289 288 287 287 286 285 285 285 285 285 285 284 284 284 284 284 284 285 285 285 285 286 286
288 288 288 289 289 288 288 288 288 289 290 291 290 289 288 288 288 287 286 286 286 286 285 285 285 285 285 284 284 284 284 284 284 283 283 282 281 283 285 282 284 284 283 280 285 285 285 284 282 281 282 282 284 285 288 288 288 288 288 288 288 288 288 287 287 288 287 287 287 287 287 286 286 285 285 285 284 285 285 285 285 286 286 286 286 286 286
288 288 289 285 288 288 289 290 290 290 289 289 289 288 287 288 288 287 286 286 286 286 287 286 286 286 286 285 284 284 284 284 284 284 284 284 283 284 285 282 284 281 280 281 285 285 285 280 280 281 281 281 283 287 288 287 288 288 288 287 287 287 287 287 287 287 288 287 287 287 287 287 286 286 286 285 285 284 284 284 285 286 286 286 286 286 286
288 288 288 288 289 290 290 289 288 288 288 288 288 289 289 288 287 287 287 286 287 287 287 286 286 286 286 286 285 284 283 283 284 284 285 285 284 283 282 281 280 279 281 284 284 284 283 282 281 280 281 281 283 287 288 288 288 287 287 287 287 287 287 286 287 287 286 286 286 285 285 286 286 286 285 285 285 285 285 284 285 285 285 284 284 284 284
287 287 288 289 289 289 288 288 287 288 288 288 290 290 291 290 288 287 287 286 286 286 286 287 286 286 286 286 286 285 285 284 282 283 285 285 285 285 285 285 283 279 280 282 281 280 279 279 279 280 280 282 287 288 288 287 287 287 287 287 286 287 287 287 287 286 286 286 287 287 287 287 287 287 286 286 286 286 285 285 285 285 285 285 285 285 285
287 288 289 288 288 288 288 288 288 288 289 290 289 290 290 289 287 286 286 285 285 285 286 286 286 286 286 285 285 286 285 285 285 283 285 285 285 285 285 283 280 280 283 285 285 284 280 278 279 279 280 282 287 287 287 287 286 285 286 286 286 286 286 286 287 287 287 286 286 286 286 285 286 286 285 285 285 285 285 285 284 284 284 284 284 284 284
287 287 287 288 288 288 288 288 288 289 290 290 289 290 289 288 287 288 286 286 286 285 286 286 286 286 286 286 285 285 285 285 285 285 285 285 285 285 284 284 284 280 281 284 284 284 280 279 280 280 284 286 286 286 286 286 286 285 285 286 285 285 285 284 282 283 285 286 286 285 285 284 284 284 284 284 284 284 284 283 283 282 282 282 282 282 282
287 286 288 288 289 290 290 290 291 291 291 290 290 289 287 287 289 289 288 287 286 284 285 285 286 286 286 286 286 286 285 285 285 283 284 285 284 283 282 283 283 283 282 283 284 284 285 285 284 283 284 285 285 285 285 285 285 285 284 285 285 285 285 285 285 285 285 285 285 285 285 285 285 284 284 284 283 283 283 283 283 282 282 282 282 282 281
287 288 288 288 289 289 289 289 290 290 290 290 290 288 287 288 288 288 287 282 285 286 286 285 284 286 286 286 285 286 286 285 284 284 283 285 284 285 283 281 284 283 284 285 285 285 284 283 281 280 281 285 285 284 281 281 284 285 284 283 283 284 283 284 284 285 284 285 285 285 284 285 285 284 284 283 282 282 281 282 281 281 281 281 281 281 281
Wind_Speed
6 5 6 5 7 7 5 5 5 7 8 4 4 2 2 2 3 2 7 5 7 4 5 5 6 7 8 9 8 8 8 9 10 13 14 14 15 15 16 15 14 14 14 13 14 14 12 13 13 12 10 9 8 7 5 4 3 2 2 1 2 4 6 7 8 8 6 6 6 7 7 6 5 5 6 7 8 8 8 7 5 7 7 7 7 7 7
8 11 9 8 10 4 6 10 9 7 9 9 9 8 5 3 6 7 12 12 10 5 4 5 5 5 7 7 7 9 11 11 12 14 15 15 15 16 15 14 14 13 14 14 13 13 13 14 14 13 11 10 8 8 7 5 4 3 0 1 3 4 6 7 6 5 6 5 6 7 8 8 8 9 8 8 9 10 10 8 6 5 7 7 6 6 5
6 7 6 8 10 8 6 5 5 6 7 12 10 9 8 10 11 8 11 12 9 4 3 5 5 4 5 9 13 12 10 11 13 15 15 15 15 15 14 14 14 14 14 14 14 14 13 13 12 10 9 9 8 9 7 5 4 4 2 0 2 3 5 4 3 2 3 4 5 7 7 7 6 9 10 9 11 11 7 7 8 6 4 5 6 5 4
2 2 4 6 6 5 4 4 5 5 5 4 2 3 1 1 6 6 9 6 5 5 6 7 5 7 10 12 11 10 10 11 13 15 14 14 14 14 14 14 14 15 15 14 14 13 12 12 12 11 10 9 10 9 8 6 4 3 3 1 1 2 3 3 3 3 3 3 5 6 7 8 8 8 8 9 10 8 6 8 8 9 10 10 8 7 7
2 3 2 2 3 5 9 4 1 2 3 5 6 5 5 5 4 8 4 3 7 9 7 9 8 10 11 10 9 9 11 11 12 13 13 13 13 12 12 13 13 12 12 11 11 11 11 11 11 12 10 10 10 8 8 7 6 5 4 3 3 2 2 3 3 2 5 6 6 7 7 7 6 6 7 9 9 9 10 10 8 10 10 9 11 11 10
3 6 5 3 4 4 6 3 4 2 1 2 2 2 4 3 3 1 4 10 11 9 7 9 9 10 9 8 7 6 7 8 10 11 11 11 11 11 11 11 11 10 9 9 10 10 10 10 9 8 9 9 7 6 6 7 8 8 7 5 4 3 3 3 2 2 1 4 6 5 4 5 6 8 7 9 9 8 7 7 8 8 9 12 9 9 9
5 7 7 5 5 6 5 5 2 5 2 6 12 10 8 6 8 12 12 10 9 8 8 9 10 10 8 8 9 9 8 8 9 10 10 11 10 10 10 11 11 10 10 10 11 12 12 11 10 10 11 10 8 9 9 9 8 7 7 7 7 6 4 2 1 2 4 3 4 4 3 3 4 7 10 9 7 6 5 6 7 8 10 11 10 8 8
4 3 4 5 4 4 5 3 3 6 7 7 12 12 9 6 4 6 12 10 10 10 9 8 7 9 9 9 9 8 8 8 8 9 9 9 9 10 9 9 9 10 10 10 10 9 8 9 11 11 10 10 9 9 8 9 8 8 7 7 8 7 6 6 4 2 4 5 6 6 6 5 6 6 5 5 5 3 3 6 7 7 8 7 8 8 7
4 2 4 0 3 2 2 3 4 3 3 2 1 4 3 3 2 6 12 11 10 9 8 7 6 2 2 8 7 7 8 8 7 8 8 7 8 7 7 7 8 8 7 8 8 7 8 8 10 10 10 10 9 9 10 10 9 8 8 9 9 8 6 5 6 6 5 5 5 5 6 6 7 8 7 8 7 6 8 8 9 8 7 7 6 5 5
0 4 3 0 1 2 4 3 3 1 1 1 2 5 4 2 2 2 9 11 9 8 6 5 2 1 1 6 4 5 7 7 7 7 7 7 7 7 7 7 7 7 7 7 7 7 8 9 11 10 11 11 10 9 9 10 10 9 9 9 9 9 8 8 6 5 5 6 6 5 5 7 8 7 7 6 7 6 6 5 4 4 3 2 3 6 8
2 1 4 3 4 1 4 4 2 2 2 2 2 1 4 3 3 4 5 7 5 4 5 4 4 2 2 3 3 4 5 6 6 6 6 7 7 7 8 8 9 8 8 8 8 9 9 10 10 10 11 11 10 9 9 9 9 9 9 10 10 10 9 9 8 6 5 6 6 5 5 6 5 6 6 6 4 5 6 7 5 4 5 5 4 4 4
0 1 1 2 2 2 3 4 4 4 2 4 2 3 4 8 4 4 5 7 6 3 2 4 4 3 2 3 3 4 4 5 6 7 7 7 7 7 8 8 9 8 8 10 10 10 10 10 10 10 10 9 9 8 9 8 8 8 9 10 10 9 10 9 8 7 5 5 6 6 6 4 3 5 3 3 4 4 3 2 3 3 4 4 5 4 4
1 3 1 1 1 1 2 4 6 4 3 2 5 4 5 5 4 3 3 6 4 2 3 1 3 4 5 5 4 3 4 5 6 6 6 6 6 7 8 8 9 8 9 9 9 10 9 10 11 10 9 8 8 8 7 7 8 8 9 9 10 10 10 10 10 9 7 5 6 7 6 4 2 3 4 6 6 6 5 3 3 3 3 3 4 4 3
1 0 2 0 1 1 2 3 4 4 2 5 1 3 1 7 6 4 3 5 3 3 6 5 5 4 3 4 4 5 5 4 4 5 5 6 6 6 5 6 7 8 7 7 8 8 8 9 9 9 9 9 9 8 8 7 8 7 8 9 9 10 10 11 10 10 9 7 5 4 5 5 4 4 4 2 5 7 6 6 6 4 4 4 5 5 3
1 0 2 1 3 2 4 6 1 2 1 2 5 7 3 2 6 6 3 3 3 2 5 4 4 3 4 4 4 3 3 4 5 5 6 7 8 9 10 10 10 10 10 9 9 8 7 7 7 7 8 10 9 9 9 10 8 7 8 8 9 10 10 10 10 10 9 9 7 4 4 5 6 6 4 5 4 5 7 6 7 6 5 4 6 6 4
0 1 2 1 3 3 5 3 1 2 5 6 4 6 7 3 3 4 4 2 2 2 4 4 3 2 3 3 4 4 4 5 5 5 6 6 7 8 7 8 9 10 9 9 10 9 8 7 7 7 7 8 9 10 12 10 9 9 9 9 9 9 9 10 10 10 10 9 8 6 4 3 5 6 5 6 5 5 6 7 7 6 5 5 5 6 6
1 1 3 1 2 3 5 4 8 7 6 4 1 4 6 5 3 2 3 5 4 2 3 3 2 3 3 3 2 4 5 5 6 7 7 7 8 8 8 9 9 9 9 10 10 10 9 9 8 7 7 8 10 11 10 10 10 10 10 10 9 9 9 9 9 9 9 9 8 6 4 2 3 4 5 4 5 4 5 5 6 7 6 6 6 7 6
7 8 5 3 3 5 8 7 6 6 6 6 6 5 5 5 4 2 4 4 4 4 2 3 2 3 2 2 2 3 3 4 4 5 6 6 7 7 8 9 10 10 10 10 10 11 11 10 9 7 7 8 11 11 10 10 10 11 11 11 10 10 10 9 9 10 10 10 9 6 6 6 4 2 2 4 4 6 5 6 6 7 7 6 6 6 7
2 3 0 4 3 3 5 4 5 5 5 4 4 5 5 3 2 3 3 3 4 3 3 4 2 2 1 2 2 3 4 5 6 7 7 8 9 9 10 11 12 11 11 11 12 13 14 11 10 9 10 9 10 10 10 10 11 11 11 11 11 10 10 10 9 9 9 9 7 7 8 5 4 4 2 2 4 4 6 7 7 7 7 7 7 7 6
1 3 7 2 1 1 1 0 2 2 2 2 3 2 2 2 4 4 4 3 4 3 4 3 3 3 2 4 5 5 5 5 6 7 7 9 9 9 10 11 12 12 12 13 14 15 14 13 12 12 12 12 12 13 13 12 12 12 12 11 11 11 11 10 9 9 9 8 9 7 8 5 3 4 3 3 5 5 5 4 5 1 3 5 7 6 6
4 5 3 1 2 2 3 4 1 1 1 2 2 1 2 3 4 4 5 5 3 3 3 3 3 4 5 5 5 6 6 6 7 7 8 9 11 12 12 12 12 11 12 13 14 14 14 13 13 13 14 13 13 14 14 13 13 14 13 14 13 13 11 10 10 8 8 8 8 8 8 7 4 4 4 5 5 3 2 0 2 1 4 3 3 6 7
3 3 6 8 4 2 6 6 4 3 2 3 3 3 3 3 3 2 3 3 2 2 2 2 3 5 6 6 6 7 6 7 8 9 11 11 11 12 11 10 11 11 11 11 13 14 14 13 13 13 14 14 14 14 13 13 13 14 14 14 14 13 11 10 10 8 8 8 8 8 7 7 5 3 4 2 3 6 6 6 7 6 3 4 6 5 6
2 3 6 6 3 3 2 3 4 3 3 3 4 3 3 3 2 3 2 2 1 1 1 1 3 5 6 7 6 7 6 8 9 9 10 11 11 12 11 11 11 11 11 12 13 13 13 12 13 13 14 14 14 14 14 14 14 14 13 13 13 11 12 11 10 8 8 8 8 8 7 7 5 4 4 5 6 1 4 5 8 9 11 11 6 1 6
2 0 6 6 1 4 3 2 3 3 2 2 3 2 2 2 3 4 2 1 1 1 1 1 1 3 5 6 5 8 9 9 9 10 10 11 11 11 10 10 11 12 12 13 13 13 13 12 13 13 14 15 14 14 12 13 13 14 14 13 13 12 11 12 12 10 9 9 8 7 7 6 5 5 4 4 3 6 4 7 6 6 6 6 9 10 11
3 2 5 4 3 5 3 3 2 2 1 1 1 1 2 3 3 3 3 3 1 1 3 4 5 4 5 6 7 8 9 10 10 10 12 11 10 10 10 11 11 12 12 12 13 13 13 13 14 14 14 15 14 13 13 13 12 13 14 14 14 13 12 12 11 12 11 9 8 8 8 6 5 5 5 6 5 4 4 7 7 7 6 5 2 6 7
2 5 5 3 4 4 1 2 2 2 2 1 2 1 2 1 2 2 2 2 1 1 2 3 4 4 3 5 6 8 8 9 10 10 10 10 10 10 10 11 12 12 12 13 13 13 13 15 15 15 15 15 14 14 14 13 13 13 14 14 15 13 12 12 11 11 11 10 8 8 7 7 6 6 7 6 6 7 6 4 3 6 8 7 8 7 4
4 7 10 6 3 1 2 2 1 3 3 2 1 2 2 2 1 1 1 1 0 1 2 3 3 4 3 3 5 7 8 9 10 9 9 10 10 10 10 10 12 13 14 13 13 13 13 14 14 14 15 15 15 15 14 14 12 12 13 14 13 14 15 12 12 12 10 9 9 9 9 7 6 6 7 6 7 8 7 7 6 4 2 3 3 8 7
5 2 1 2 3 4 5 4 1 3 3 3 3 3 2 1 2 3 3 3 3 3 4 4 5 5 5 4 4 8 8 9 9 10 10 9 9 9 10 12 12 13 13 12 12 12 13 13 13 13 14 14 14 14 13 12 12 12 12 12 13 13 11 11 11 11 11 10 9 10 10 9 7 5 5 5 6 6 6 6 5 5 5 3 1 5 10
3 2 1 3 2 2 3 4 3 4 4 2 2 1 3 3 3 4 4 5 4 3 5 5 4 5 5 5 4 7 9 9 9 10 9 9 8 8 10 11 11 12 11 11 11 11 13 13 13 14 14 12 13 14 13 12 12 11 10 10 10 10 11 11 10 10 10 11 11 10 10 8 6 5 5 5 5 6 6 6 6 5 5 5 4 4 6
3 2 3 3 2 5 7 5 5 6 5 4 3 3 3 4 3 4 5 5 4 5 6 4 3 4 3 4 4 6 8 8 8 8 8 8 7 8 8 9 10 10 9 9 9 10 12 13 14 14 12 12 14 12 10 9 9 10 11 11 10 9 9 10 10 11 10 10 10 9 9 8 8 6 4 5 6 6 5 5 6 6 6 6 5 6 7
4 3 4 3 4 3 5 5 4 5 5 4 4 4 3 4 4 4 5 4 4 5 5 4 4 4 4 4 4 4 6 6 7 7 7 7 6 6 7 8 8 8 9 10 11 10 11 12 13 12 12 13 13 13 11 10 9 10 9 9 8 11 13 11 10 10 9 8 9 9 10 9 9 7 4 4 3 4 5 4 4 5 6 8 8 7 7
7 5 4 2 3 4 3 2 4 5 5 3 4 5 5 5 5 5 5 5 5 5 5 4 4 3 2 2 2 4 5 6 7 7 7 6 6 5 5 7 7 8 9 10 9 10 11 12 12 12 13 13 13 14 12 11 10 10 9 8 7 6 8 12 7 7 7 7 8 8 9 9 10 9 6 5 4 4 3 3 4 5 6 7 6 3 5
7 4 2 3 2 3 5 4 6 7 6 6 5 5 3 3 4 4 5 4 5 4 3 3 2 2 2 2 2 4 5 6 6 7 6 7 7 6 6 6 6 7 8 7 7 9 10 11 12 12 11 11 12 13 13 12 10 9 9 7 5 3 5 7 8 7 7 6 7 7 8 9 8 9 6 5 5 3 3 4 4 4 3 5 6 6 6
7 3 1 4 5 5 7 7 6 6 5 4 3 3 3 3 3 4 4 3 4 4 2 2 2 3 2 2 2 3 4 4 5 5 8 8 8 7 6 6 6 6 7 8 6 6 7 9 11 12 12 12 13 12 12 12 11 10 10 9 5 1 4 5 7 6 5 6 6 6 6 7 8 8 8 5 3 3 3 3 3 4 3 3 2 4 8
2 3 3 2 3 3 3 4 6 6 5 3 4 4 3 2 2 3 3 3 3 2 1 1 3 3 3 2 2 3 3 3 6 8 9 8 7 7 6 7 7 7 7 4 5 7 9 9 10 13 13 12 13 12 12 12 11 9 10 9 8 5 3 4 4 5 5 4 4 5 5 5 6 6 6 5 4 5 4 4 5 6 5 4 4 4 5
4 3 2 2 2 2 3 3 4 5 5 4 4 3 3 3 3 3 3 3 1 2 2 3 3 3 3 2 2 2 3 4 6 7 7 8 7 6 5 6 7 8 8 7 8 10 11 10 13 17 12 9 12 13 12 10 9 10 9 9 7 7 6 6 5 5 4 4 4 3 4 4 4 5 6 4 5 6 4 5 5 5 6 7 7 5 6
2 3 2 2 2 3 4 3 3 4 4 4 3 3 4 4 4 3 2 2 2 2 2 3 3 4 4 3 2 1 2 2 3 5 5 6 5 5 4 4 5 7 7 7 10 12 11 10 16 17 10 8 10 12 12 15 8 9 9 9 8 8 7 6 5 5 5 4 4 4 4 5 4 5 5 5 4 5 5 5 6 7 6 7 8 5 5
4 4 3 3 3 4 4 3 3 3 3 2 3 3 4 4 3 3 3 2 2 2 3 3 4 3 2 2 1 1 2 3 4 5 5 5 5 5 4 5 6 6 6 7 10 10 9 12 15 10 8 8 8 9 11 15 12 9 9 9 9 8 8 7 7 7 6 6 5 5 6 5 5 5 5 5 5 6 6 7 7 7 7 7 7 5 2
3 2 1 2 2 3 3 2 2 3 4 5 3 3 3 4 4 3 3 3 1 2 3 4 3 3 2 3 2 1 1 2 3 4 4 5 4 3 2 2 3 4 4 7 9 8 9 11 11 8 7 8 9 8 10 12 11 9 9 9 10 9 8 8 9 8 8 7 7 6 7 7 6 5 6 6 7 7 7 7 7 6 7 7 10 8 3
4 4 5 4 4 5 4 4 4 4 4 3 3 4 3 2 2 2 3 2 2 3 3 3 4 3 3 3 3 2 1 1 1 2 4 4 4 3 1 3 7 6 7 9 7 6 9 12 9 6 7 7 7 7 7 10 9 8 9 9 9 10 9 9 9 8 8 8 8 8 9 8 8 6 7 7 8 9 9 10 9 8 8 8 8 6 6
5 5 4 5 5 4 5 5 5 4 4 4 4 5 3 3 2 2 3 3 2 3 3 4 3 2 2 2 3 2 1 1 1 1 2 3 2 3 4 5 8 7 8 8 7 7 7 7 7 7 6 7 6 8 5 8 7 7 7 8 9 9 9 10 9 9 8 8 8 9 9 9 9 9 9 9 9 9 10 9 7 7 6 7 7 7 7
6 5 5 5 5 5 5 5 3 3 4 4 5 5 4 3 3 4 2 1 2 2 2 3 2 1 2 1 2 2 1 1 1 2 1 3 3 3 4 4 7 6 11 10 7 6 6 6 7 7 7 6 5 9 8 6 6 6 7 7 7 8 8 8 9 9 9 9 9 8 8 7 8 8 10 10 9 9 8 8 7 6 6 6 6 6 7
7 7 7 7 6 6 5 5 6 6 5 4 3 4 3 3 3 3 2 3 3 2 2 2 3 4 3 2 2 1 1 1 2 1 1 2 2 3 3 4 5 5 10 7 7 5 6 6 6 6 9 8 6 8 7 6 6 6 6 6 7 7 8 9 8 8 8 9 9 8 8 8 8 7 6 7 6 6 6 6 6 6 6 6 6 6 7
7 7 6 6 6 6 5 5 4 3 4 5 3 3 3 3 3 3 4 4 3 3 3 3 3 3 2 2 2 1 1 1 1 1 1 1 2 2 2 3 4 5 7 6 5 5 6 6 6 9 9 8 9 8 6 6 6 6 6 7 6 7 7 7 8 9 9 9 9 8 8 8 8 8 7 6 7 7 7 6 6 6 6 6 6 6 6
7 7 8 8 6 4 5 5 6 8 6 3 2 3 3 3 3 4 4 4 4 3 3 3 4 4 3 3 2 1 1 0 1 1 1 1 1 2 4 4 3 4 5 7 4 5 5 6 8 10 8 9 8 8 6 6 6 6 6 6 7 7 7 7 8 8 8 8 8 8 8 8 8 8 8 8 8 7 7 8 7 7 7 7 7 7 6
8 7 7 6 6 8 8 8 5 3 2 3 3 3 3 3 3 3 4 5 4 4 3 3 4 4 4 3 3 3 2 1 1 0 1 2 2 2 3 3 3 4 6 6 4 5 5 7 9 9 9 8 8 6 6 6 6 6 6 7 7 7 7 7 7 7 8 8 8 7 7 7 7 7 7 7 8 8 8 8 9 8 7 7 8 8 8
6 6 7 7 7 7 5 4 3 4 4 3 4 5 4 4 4 4 4 5 4 3 3 3 3 3 4 5 4 3 3 2 2 1 1 1 1 1 0 1 2 4 5 4 4 5 5 5 7 8 8 8 7 5 6 6 6 6 7 7 6 7 7 6 7 6 6 7 9 10 10 10 9 9 9 9 9 8 8 8 8 8 8 9 9 9 9
6 6 7 7 6 4 4 5 6 6 7 8 7 6 5 4 4 4 3 3 4 3 3 3 3 3 3 4 4 3 2 2 1 2 2 1 1 1 1 2 3 3 3 1 3 5 7 7 7 8 8 7 6 6 6 6 6 6 6 6 6 6 5 5 6 6 6 7 7 7 7 8 8 8 8 8 8 8 8 8 8 8 7 7 7 7 7
6 6 4 4 4 5 6 6 6 6 6 6 6 5 5 4 3 3 4 4 4 4 4 4 3 3 3 4 4 3 3 2 1 1 3 2 2 1 2 2 2 1 2 3 3 3 6 7 7 7 7 6 5 5 6 6 6 6 6 6 6 6 6 6 6 7 7 8 8 8 8 8 8 7 7 7 7 7 8 7 7 6 6 6 7 7 6
4 4 4 5 5 6 7 6 6 6 6 5 6 5 4 4 4 5 5 5 6 5 4 4 4 4 4 4 4 4 4 4 3 2 3 3 3 2 2 1 2 3 3 2 2 2 3 3 6 6 5 3 5 5 5 6 6 6 6 7 7 6 7 7 8 8 8 9 9 8 8 8 8 8 9 8 8 8 8 8 8 9 11 8 7 6 6
4 5 5 6 6 6 7 7 6 5 5 5 5 4 5 6 6 5 5 5 4 5 5 5 4 4 4 4 4 4 4 4 4 4 3 4 3 3 2 3 2 2 2 2 2 1 1 2 2 3 3 4 4 4 4 5 4 5 6 5 5 6 6 7 6 6 6 6 7 7 7 8 8 8 7 7 7 7 7 6 7 6 6 6 6 6 6
5 5 4 3 3 4 4 5 4 4 4 4 4 5 6 6 5 5 3 6 6 6 6 6 5 5 5 5 5 4 4 5 5 5 4 4 4 3 4 3 3 3 2 2 2 2 2 2 3 4 3 3 3 4 4 5 5 4 5 5 6 6 6 5 6 5 5 5 6 6 6 6 6 7 7 5 5 6 6 7 7 6 6 6 6 6 6
Wind_Direction
41 9 38 45 66 60 69 51 12 8 342 1 96 64 46 288 212 203 128 119 100 78 60 51 50 51 65 68 57 57 66 70 69 67 63 61 59 58 56 52 50 47 45 41 39 39 38 38 38 36 33 28 23 29 28 25 22 13 1 299 240 221 215 220 221 219 210 206 216 226 231 220 194 203 171 168 167 170 171 164 158 159 154 148 152 152 151
36 23 26 48 72 64 42 31 36 33 46 49 62 61 24 56 79 87 114 96 85 82 65 61 52 77 82 71 69 69 62 60 66 66 63 60 58 57 55 53 52 50 48 46 44 42 38 37 36 35 34 33 30 27 19 16 30 20 350 195 219 224 229 233 235 233 223 211 216 224 226 220 201 193 180 168 173 176 177 170 159 155 150 149 147 155 161
6 347 8 50 52 48 42 33 41 42 65 69 66 89 73 75 76 77 104 101 94 68 64 84 89 92 91 79 66 61 60 60 64 66 62 60 58 56 54 50 48 46 43 41 39 38 36 34 33 33 31 33 33 36 27 21 16 2 350 215 222 234 241 252 255 244 241 231 223 228 227 226 201 192 189 180 183 183 171 155 159 154 164 163 170 179 177
281 334 350 14 18 50 33 350 355 27 45 65 354 67 307 151 145 132 111 100 120 125 104 100 92 88 77 73 68 61 55 54 60 63 60 57 53 50 48 47 45 42 41 37 35 32 29 27 28 25 20 24 31 27 22 23 26 27 11 351 215 242 267 268 256 249 245 236 239 238 234 225 216 201 188 184 188 183 166 183 178 185 198 198 199 204 215
220 173 91 60 19 14 322 266 29 17 34 95 112 65 28 21 132 150 165 116 116 129 133 109 89 81 77 71 62 71 63 56 59 60 59 57 53 46 43 42 41 38 37 34 31 27 28 26 24 22 20 22 22 16 18 14 22 34 62 42 344 308 285 253 234 235 243 245 242 238 237 235 227 206 193 195 193 187 196 202 194 198 191 194 215 207 202
153 135 112 135 127 219 232 43 287 277 80 236 108 48 356 6 23 22 19 116 129 127 128 110 100 84 76 79 68 47 58 62 61 58 56 55 53 50 45 40 37 32 29 26 24 23 22 20 18 14 23 18 7 8 8 21 28 26 21 31 51 45 0 334 307 239 245 236 231 226 223 229 229 223 212 206 203 203 203 200 203 203 195 209 209 201 196
139 132 131 127 190 222 28 316 325 232 237 112 100 85 58 57 98 112 102 111 124 121 111 107 103 102 96 81 74 61 48 55 62 61 55 47 43 41 38 33 29 24 22 19 17 16 13 6 7 13 16 9 4 16 14 16 17 19 21 25 31 19 24 38 333 286 264 250 236 222 216 221 226 226 225 222 218 220 214 213 212 206 202 208 208 198 194
74 128 161 168 219 2 325 38 56 106 113 113 99 73 56 43 54 109 118 122 122 123 118 113 114 106 104 85 63 56 50 40 45 53 49 43 40 37 29 25 22 17 13 11 12 4 357 3 9 10 7 358 5 11 12 17 7 9 8 16 20 22 19 6 341 290 247 237 233 232 223 214 216 220 214 218 231 213 227 236 234 220 206 203 193 191 184
167 174 181 22 352 266 98 100 160 189 151 168 336 120 65 24 40 125 124 126 129 129 130 128 127 113 129 83 65 47 40 38 44 46 48 41 41 40 32 28 26 22 4 358 5 2 3 7 13 358 356 355 0 6 10 7 3 3 5 8 5 4 6 7 357 331 298 267 248 236 227 220 220 220 217 207 202 191 205 213 218 212 204 200 194 165 172
150 147 145 77 52 242 191 159 52 91 338 31 190 103 100 60 42 100 134 136 144 145 154 172 164 319 174 87 69 42 34 33 35 45 45 41 39 38 37 32 29 27 15 3 7 10 7 14 11 358 355 356 355 2 2 359 357 354 2 3 359 357 352 350 340 335 308 278 256 227 218 225 222 217 214 208 205 186 190 205 218 231 200 199 191 184 185
131 183 177 184 185 192 20 105 90 0 339 219 236 136 132 141 151 162 144 133 147 166 181 169 145 195 167 111 84 46 25 31 35 34 39 35 33 30 25 22 17 14 13 5 5 7 8 7 1 356 354 352 353 353 353 350 346 347 352 353 352 347 342 337 334 330 319 290 272 252 233 227 223 223 209 203 193 173 198 206 197 169 189 185 171 169 179
354 112 201 224 202 71 47 345 318 330 348 156 178 195 186 151 184 149 148 132 134 123 89 139 163 219 166 120 87 39 21 29 35 27 22 20 19 21 16 19 9 358 358 358 1 3 0 357 349 353 353 351 347 344 343 339 338 343 344 340 335 331 332 332 330 333 331 310 282 270 257 235 227 228 204 177 164 174 160 167 156 165 163 149 134 121 129
85 95 46 346 202 225 276 309 320 333 219 223 194 215 114 140 143 148 117 103 100 92 108 202 106 53 48 62 71 50 31 28 31 27 24 19 12 9 6 3 354 353 354 355 350 349 348 345 345 344 347 342 338 336 332 329 331 338 337 334 333 332 329 329 329 333 338 334 315 293 279 252 198 218 214 177 149 145 138 136 139 131 116 103 96 91 72
139 142 118 243 328 263 334 300 304 288 190 186 218 57 48 125 128 131 120 113 93 72 71 71 73 74 65 73 67 50 42 35 26 14 6 3 4 5 354 339 346 347 340 340 340 342 342 340 338 339 336 332 323 325 321 317 324 331 331 332 330 329 328 326 326 327 331 335 323 308 296 271 198 203 224 247 151 148 143 146 138 125 120 106 104 99 80
109 112 96 153 224 101 356 313 257 30 269 43 108 129 103 121 126 137 135 100 116 79 94 78 81 70 60 52 42 38 51 30 19 7 4 2 355 351 348 347 350 346 338 338 340 337 335 335 335 331 330 322 320 316 310 311 318 323 323 321 323 324 323 321 321 321 322 329 330 328 321 288 261 202 187 194 192 152 144 144 134 134 131 132 126 122 122
240 157 179 133 11 330 335 294 103 54 65 120 130 115 120 129 142 129 125 109 120 114 79 95 72 69 52 64 31 17 26 13 2 0 358 354 345 342 341 339 340 338 331 331 328 330 329 330 328 325 323 316 312 308 302 309 311 312 312 313 314 312 311 311 312 314 316 318 323 320 332 337 299 282 193 186 189 180 169 156 149 140 153 153 136 134 137
4 63 93 84 337 346 24 76 84 91 94 110 137 84 97 116 103 129 93 110 127 134 107 105 74 61 62 38 39 13 360 349 351 350 346 340 339 338 336 334 336 333 329 325 322 321 326 326 326 321 314 305 301 294 298 308 308 308 308 306 303 299 298 299 302 304 307 306 310 319 316 316 318 291 268 198 182 183 174 172 160 152 159 159 155 150 144
98 55 46 58 61 56 62 54 55 77 80 65 66 67 80 76 87 95 82 98 112 118 102 39 60 56 46 25 27 0 345 333 336 332 331 335 336 334 332 333 339 332 326 322 321 318 320 322 317 314 307 298 290 290 295 295 296 298 298 296 291 287 288 288 289 293 295 298 297 302 311 299 269 256 265 261 217 175 192 183 177 166 161 162 154 149 149
102 95 108 72 76 44 28 50 38 41 48 38 45 55 48 32 66 91 90 96 95 107 102 86 89 75 89 16 357 348 332 339 338 337 335 339 339 337 337 335 332 329 328 322 321 320 316 319 317 313 309 301 294 295 293 291 290 287 285 284 282 278 274 275 276 276 279 283 293 303 287 276 277 252 230 240 305 269 195 183 186 179 166 166 164 157 150
40 120 158 179 23 338 295 314 81 77 45 42 24 25 15 59 66 62 48 43 56 42 42 51 44 44 50 4 350 340 337 333 331 329 335 334 334 333 330 328 328 323 321 318 318 318 317 318 317 314 309 303 301 299 295 292 288 285 279 274 274 274 274 271 268 266 267 268 273 275 276 261 266 268 244 232 222 234 255 232 155 251 222 176 162 147 137
92 74 101 156 214 243 199 202 267 26 120 135 108 62 95 97 82 69 57 42 36 33 52 73 31 358 1 1 347 335 328 325 325 331 330 329 328 328 327 326 323 319 317 316 314 313 313 316 314 313 310 304 303 303 299 293 289 285 281 278 273 270 270 268 263 258 258 261 260 263 265 264 198 233 237 225 210 233 171 54 323 244 187 205 166 164 147
149 181 170 171 161 187 188 202 181 156 161 155 126 120 109 99 101 93 84 64 44 54 76 35 15 347 340 339 339 323 314 311 318 323 324 324 324 322 321 316 313 311 310 308 308 307 307 310 308 307 305 304 303 301 299 297 291 284 282 281 277 271 264 258 258 258 255 253 250 247 248 257 243 158 114 221 279 239 215 186 184 171 217 216 213 185 151
178 194 172 180 52 55 27 140 134 136 143 168 150 137 97 98 112 145 145 128 137 106 55 19 339 335 328 325 328 310 305 313 319 318 319 320 319 318 319 316 316 315 313 311 310 306 306 308 307 306 302 300 297 295 296 292 288 283 279 276 274 272 267 259 255 260 262 262 257 248 244 242 233 219 169 135 115 102 283 225 224 206 203 240 317 194 187
13 350 169 158 63 61 100 115 101 111 146 171 123 100 110 126 144 162 172 161 101 98 347 341 82 340 326 321 325 316 316 319 323 321 322 320 318 318 319 317 315 317 317 315 312 310 312 311 308 305 301 298 296 295 290 285 281 277 271 266 266 265 267 270 265 258 254 255 259 257 244 230 226 210 185 174 146 67 69 175 197 208 232 229 236 244 240
99 116 143 134 92 105 65 76 78 98 141 224 114 97 119 144 154 184 156 134 125 359 340 332 343 358 333 329 328 324 320 319 320 322 320 319 321 320 316 316 318 318 314 311 308 308 309 308 305 302 297 296 296 293 291 287 279 272 266 260 258 257 258 260 262 263 259 251 247 249 246 227 210 201 185 174 182 159 90 64 92 105 111 110 163 237 219
117 101 103 105 88 84 88 126 128 133 122 116 106 107 136 83 94 137 124 126 104 89 344 328 322 338 333 320 325 321 316 314 320 319 319 322 322 320 318 319 316 311 309 308 305 303 305 308 307 303 297 294 298 297 295 290 284 277 268 260 254 251 250 249 253 257 256 252 242 239 244 234 209 193 195 198 173 155 148 155 100 78 76 92 116 119 149
106 125 122 107 118 135 201 207 218 162 135 147 139 149 113 61 108 124 89 101 75 297 262 269 269 291 294 292 305 320 317 318 318 320 321 319 319 318 316 312 310 309 307 303 300 301 305 305 304 302 298 298 302 302 298 294 283 276 271 263 254 246 237 237 248 252 253 256 252 243 237 232 213 195 197 198 179 174 175 167 158 161 126 42 89 127 136
136 102 3 150 173 191 205 205 252 128 126 142 161 156 107 105 148 176 207 212 235 240 248 250 258 263 279 296 310 323 324 322 323 320 320 318 317 314 311 311 310 308 302 298 299 305 310 309 306 302 300 303 306 308 302 294 287 279 271 266 259 252 242 223 222 237 245 245 247 243 234 230 224 205 183 175 178 183 169 154 144 127 110 119 58 14 77
164 156 69 47 81 84 85 105 124 143 133 92 59 78 147 174 195 219 233 241 246 249 252 244 231 252 269 291 302 316 322 323 320 318 315 311 308 310 313 311 309 304 300 300 302 315 318 314 312 310 307 306 312 310 303 294 286 277 267 258 251 245 238 232 222 222 231 237 236 235 235 230 227 216 192 181 181 190 187 163 152 153 138 124 119 101 92
130 128 118 103 126 142 136 155 167 168 168 163 168 180 197 217 224 235 246 254 244 252 263 267 265 268 265 285 298 317 316 315 307 304 304 299 303 310 310 312 310 305 307 314 318 319 316 315 315 312 310 312 314 307 296 287 276 273 267 257 247 235 230 223 219 218 222 229 231 227 228 228 229 219 191 187 184 195 191 190 171 149 143 151 158 158 148
108 97 107 122 149 179 184 174 169 178 177 180 200 204 198 218 246 265 259 258 243 251 266 260 268 285 288 285 298 308 305 294 290 292 292 296 300 298 307 318 318 318 318 311 312 310 309 312 312 308 314 315 308 306 301 298 296 292 284 265 246 229 220 209 207 214 213 217 224 223 220 218 216 209 196 184 185 198 196 192 168 156 154 159 160 175 159
118 110 107 125 170 191 186 162 182 187 188 174 188 216 219 217 230 250 269 275 282 287 290 273 267 279 294 283 290 301 292 287 288 289 292 296 291 296 303 313 312 306 296 294 293 309 318 316 313 320 323 324 319 323 323 322 318 315 310 290 267 233 207 203 197 200 200 205 210 214 216 215 215 209 192 185 184 186 190 183 175 174 165 163 165 155 147
132 137 172 182 184 206 216 202 198 199 187 192 210 226 233 228 243 255 267 274 284 284 270 270 269 266 248 249 279 288 290 293 293 292 300 311 314 318 315 318 312 303 298 291 311 331 330 321 318 317 316 316 326 332 335 332 327 328 325 311 306 240 174 185 189 191 196 200 206 215 212 210 213 214 206 184 174 173 178 178 174 169 166 165 156 143 191
170 199 170 175 202 218 216 211 203 207 194 210 221 231 248 238 238 257 265 268 266 272 260 243 222 210 197 203 255 271 299 316 327 325 322 318 318 321 318 315 312 306 299 292 295 320 333 322 335 336 324 325 336 339 341 341 337 341 345 352 358 43 139 163 175 174 182 188 202 210 214 208 209 209 207 176 163 165 160 161 152 145 138 126 127 160 156
139 115 123 160 206 226 229 216 187 194 197 209 225 231 237 247 250 260 264 268 257 254 207 198 199 184 192 197 242 269 305 312 309 306 310 318 321 317 317 319 322 326 314 300 346 343 330 322 337 336 328 337 352 353 352 340 344 351 4 16 21 44 88 148 153 167 174 183 175 179 194 200 206 197 187 168 151 142 140 146 139 134 124 116 107 121 134
149 136 144 167 196 202 196 196 186 185 189 200 215 232 264 266 264 264 248 232 221 227 208 196 187 160 203 221 265 304 308 321 318 315 311 316 319 320 317 332 343 340 335 338 6 349 335 334 340 336 327 339 355 0 359 345 352 9 12 23 37 43 54 69 74 81 94 124 129 147 166 158 159 159 162 157 146 147 139 135 136 139 135 132 130 141 153
196 180 178 183 170 183 188 188 177 178 189 200 212 230 256 260 262 268 256 257 225 209 186 170 151 188 222 213 238 258 295 323 329 323 318 323 325 319 306 327 359 350 341 347 343 338 331 336 334 327 329 352 356 5 358 349 354 23 26 28 38 45 52 61 68 83 84 91 100 103 105 106 115 117 137 143 140 133 134 132 125 123 124 127 126 132 183
184 192 190 193 176 179 200 189 173 180 180 192 222 231 250 272 268 257 247 242 221 194 179 179 197 200 174 178 234 271 315 327 327 315 320 321 326 317 340 15 11 356 352 339 324 323 328 331 325 329 344 351 348 1 359 351 350 25 41 34 34 41 47 54 63 69 72 75 86 109 118 113 117 121 117 115 119 119 117 117 122 125 128 126 114 108 207
166 176 199 201 188 189 176 150 169 189 200 221 236 249 244 245 262 264 250 239 198 169 186 200 196 187 185 194 231 264 288 307 312 317 331 328 321 333 10 22 20 349 320 314 315 316 331 333 329 332 347 350 349 357 2 355 354 34 43 49 44 43 39 52 56 62 63 72 81 93 104 107 106 101 107 105 110 109 106 105 108 108 108 115 116 121 136
189 188 192 178 199 197 187 189 188 197 201 214 228 257 264 256 260 250 245 233 182 182 204 191 194 209 202 208 218 229 235 252 261 332 325 316 315 322 358 53 15 353 343 329 327 331 327 320 329 345 348 351 358 355 7 353 354 37 43 49 54 56 52 52 57 58 59 61 67 70 84 89 91 92 94 100 110 117 122 122 117 107 115 107 100 108 112
205 192 188 194 203 194 201 192 201 201 201 208 222 240 248 261 277 258 240 232 177 176 198 202 211 215 208 220 213 213 203 312 353 339 303 288 323 14 21 18 360 341 347 341 330 325 334 350 352 346 353 351 11 353 354 8 15 30 34 48 55 58 61 57 57 54 58 59 65 72 75 78 86 94 102 106 109 112 115 108 86 75 83 96 103 104 101
212 196 194 201 205 205 207 207 190 185 209 215 226 236 245 234 231 245 246 208 182 182 190 199 208 212 166 171 180 195 217 286 302 297 317 358 11 11 9 13 347 341 338 327 326 335 354 355 357 3 358 349 6 352 345 21 34 35 39 33 40 53 63 65 68 67 67 66 66 69 67 70 76 84 86 92 92 89 85 79 76 72 72 75 85 94 104
195 198 204 206 207 205 204 202 204 215 222 215 205 224 239 237 232 227 218 208 202 186 195 187 160 159 165 170 183 223 235 241 251 271 216 104 60 42 10 341 334 352 336 333 341 349 359 2 3 16 353 354 4 345 8 37 39 43 44 48 45 41 53 60 60 62 66 71 69 65 70 74 80 74 69 71 68 67 76 78 80 80 78 80 86 87 90
196 203 209 208 212 205 195 200 208 207 226 239 209 209 231 234 223 216 210 206 198 194 209 207 204 197 184 175 202 217 209 226 260 308 317 116 138 111 22 347 348 340 347 342 348 358 6 6 13 351 348 358 7 12 28 41 45 47 47 44 44 47 46 49 60 64 65 67 69 70 68 68 72 77 75 74 77 78 77 77 76 82 87 85 84 90 98
201 203 206 212 208 184 198 201 200 210 213 208 191 206 215 235 229 218 215 210 209 194 191 213 215 209 196 194 202 183 148 71 358 340 5 45 35 50 29 346 349 351 355 330 351 9 21 12 354 350 3 7 21 20 39 42 43 46 48 49 48 49 51 55 60 64 64 68 72 76 77 78 81 81 84 83 85 87 89 92 92 95 100 106 110 112 105
207 205 201 200 206 211 210 206 206 188 182 196 209 214 213 226 236 224 215 219 213 207 199 203 213 210 197 182 163 152 153 155 125 24 18 12 19 18 18 344 356 0 331 328 18 11 27 1 0 5 8 12 11 34 46 42 45 47 47 50 53 52 55 56 61 65 67 67 69 71 75 78 78 77 78 81 81 84 85 89 93 91 92 94 97 103 108
211 196 195 202 214 216 199 184 169 183 192 201 222 231 210 204 215 224 218 215 224 213 192 187 207 213 198 185 179 180 178 161 154 164 172 152 164 210 258 297 13 357 351 15 23 25 13 10 10 9 16 17 21 43 43 48 48 50 50 52 50 56 54 56 55 62 66 72 75 77 74 75 80 84 84 84 83 82 82 82 84 87 90 93 96 97 99
213 211 203 201 209 185 170 179 179 194 201 210 212 217 209 193 200 212 213 214 219 219 208 199 194 195 195 195 194 202 207 193 172 152 175 171 138 115 88 46 34 346 326 70 65 46 23 17 21 23 21 21 43 50 47 49 51 54 56 55 55 53 56 59 59 61 62 61 61 65 75 83 82 81 80 81 82 83 84 87 89 89 90 92 94 95 100
218 222 202 179 179 178 190 194 197 206 218 212 208 219 200 183 184 192 204 209 212 218 218 207 196 195 199 201 199 195 188 209 251 115 147 161 140 130 117 132 137 41 26 41 28 49 25 15 28 26 27 27 50 52 57 56 54 56 58 58 59 56 54 57 69 79 77 74 74 72 74 75 77 80 82 82 83 83 83 82 83 86 91 94 92 91 90
203 198 203 198 190 192 194 196 209 218 211 194 207 206 176 170 201 209 196 198 207 208 214 211 208 197 198 192 197 198 187 183 185 164 158 162 154 147 140 115 84 66 44 50 45 47 52 32 43 36 37 51 51 52 57 60 62 60 68 68 67 69 60 61 61 61 73 78 77 76 75 76 76 76 79 81 81 82 81 81 80 78 77 79 83 84 84
198 205 216 211 211 210 198 203 214 204 200 199 201 174 169 193 213 207 191 191 181 194 213 212 212 205 196 196 195 193 185 190 187 179 181 174 169 143 144 137 123 108 93 83 68 48 47 49 44 55 66 65 62 52 51 61 72 69 65 67 64 71 73 62 61 58 51 56 73 77 79 81 79 79 80 78 74 74 73 75 76 75 74 77 77 78 77
221 223 230 231 238 231 224 225 233 233 225 205 187 176 188 202 209 209 195 190 198 202 203 197 213 210 196 197 194 191 186 188 187 187 193 186 175 169 150 163 151 144 141 108 94 85 78 83 74 50 55 75 81 85 79 65 68 71 66 64 70 69 60 66 72 71 68 65 65 66 64 69 81 88 84 71 68 70 72 74 74 75 76 77 79 80 83